Flight Information

DEPARTURE
MISSOULA, MT
Elevation:
3205
Runways:
12/30 - 9501x150 - ASPH-G
8/26 - 4612x75 - ASPH-G
ATIS:
126.65
Ground:
121.9
Tower:
MISSOULA TOWER 118.4
DESTINATION
,
Elevation:
TPA:
1000 (est.)


6371.1 NM72° True-18° Var54° HDG

Flight Plan:
(click to file on line)

1. Type
2. Aircraft Identification
3. Aircraft Type / Special Equipment
4. True Airspeed
kts
5. Departure Airport
(ICAO code)
6. Arriving Airport
(ICAO code)
7. Cruising Altitude
ft
8. Alternate Airport
(ICAO code)
9. Route of Flight
10. Remarks


00:00:00 Departure ATIS: Destination ATIS:

Clearance Limit:
Route:
Altitude: Expect in minutes
Frequency:
Transponder: (7500 Hijack / 7600 Lost Comms / 7700 Emergency)


KMSO 110353Z AUTO 29009KT 10SM BKN065 BKN120 01/M07 A3005 RMK AO2 SLP197 T00061072
Time: 2021-04-11T03:53:00Z
1618116226
Winds: 290 @ 9 kts
Visibility: 10.0 sm
Clouds (AGL): BKN 6500
BKN 12000
Temperature: 0.6 C
Dew Point: -7.2 C
Pressure: 30.050198 in Hgbr


Notes:

Data extracted from FAA Digital Chart Supplement. Effective: 0901Z Thursday, Feb 25, 2021 to 0901Z Thursday, APR 22, 2021
Current ATIS data is provided courtisy of PilotEdge.